Buffalo, MN

5:46 AM CST on December 07, 2019 (GMT -0600)
Buffalo

Weather History for KCFE - October, 2019

Change the Weather History Date:

Sunday, October 6, 2019

  Actual Average (KMIC) Record (KMIC)
Temperature  
Mean Temperature 53 °F -  
Max Temperature 62 °F 62 °F 86 °F (2007)
Min Temperature 45 °F 39 °F 26 °F (2001)
Degree Days  
Heating Degree Days 12    
Growing Degree Days 3 (Base 50)    
Moisture  
Dew Point 41 °F    
Average Humidity 64    
Maximum Humidity 84    
Minimum Humidity 46    
Precipitation  
Precipitation 0.00 in - - ()
Sea Level Pressure  
Sea Level Pressure 29.95 in    
Wind  
Wind Speed - (North)    
Max Wind Speed -    
Max Gust Speed -    
Visibility 10 miles    
Events      
Averages and records for this station are not official NWS values.
T = Trace of Precipitation, MM = Missing Value Source: NWS Daily Summary

Daily Weather History Graph

Daily Weather History Graph

Search for Another Location

Airport or City:

Astronomy

Oct. 06, 2019 Rise Set
Actual Time 7:19 AM CDT 6:46 PM CDT
Civil Twilight 6:50 AM CDT 7:16 PM CDT
Nautical Twilight 6:15 AM CDT 7:50 PM CDT
Astronomical Twilight 5:41 AM CDT 8:24 PM CDT
Moon 3:46 PM CDT (10/6) No Moon Set
Length of Visible Light 12h 26m
Length of Day
11h 27m
First Quarter, 60% of the Moon is Illuminated
Oct 6
First Quarter
Oct 13
Full
Oct 21
Last Quarter
Oct 27
New
Nov 4
First Quarter

Hourly Weather History & Observations

Time (CDT) Temp. Dew Point Humidity Pressure Visibility Wind Dir Wind Speed Gust Speed Precip Events Conditions
12:15 AM 48.2 °F 43.0 °F 82% 29.83 in 10.0 mi North - - N/A   Clear
12:35 AM 48.2 °F 42.8 °F 82% 29.83 in 10.0 mi North - - N/A   Clear
12:36 AM 48.2 °F 43.0 °F 82% 29.84 in 10.0 mi North - - N/A   Clear
12:55 AM 47.8 °F 42.8 °F 83% 29.84 in 10.0 mi North - - N/A   Clear
1:15 AM 47.8 °F 43.0 °F 83% 29.84 in 10.0 mi North - - N/A   Clear
1:35 AM 47.5 °F 42.8 °F 84% 29.85 in 10.0 mi North - - N/A   Clear
1:55 AM 47.3 °F 42.4 °F 83% 29.85 in 10.0 mi North - - N/A   Clear
2:15 AM 46.8 °F 42.1 °F 84% 29.86 in 10.0 mi North - - N/A   Clear
2:35 AM 46.6 °F 41.9 °F 84% 29.86 in 10.0 mi North - - N/A   Clear
2:55 AM 46.4 °F 41.7 °F 84% 29.86 in 10.0 mi North - - N/A   Clear
3:15 AM 46.4 °F 41.7 °F 84% 29.87 in 10.0 mi North - - N/A   Clear
3:35 AM 46.4 °F 41.2 °F 82% 29.87 in 10.0 mi North - - N/A   Clear
3:36 AM 46.4 °F 41.0 °F 81% 29.87 in 10.0 mi North - - N/A   Clear
3:55 AM 46.4 °F 41.0 °F 81% 29.87 in 10.0 mi North - - N/A   Clear
4:15 AM 46.4 °F 40.5 °F 80% 29.87 in 10.0 mi North - - N/A   Clear
4:16 AM 46.4 °F 40.5 °F 80% 29.87 in 10.0 mi North - - N/A   Clear
4:35 AM 46.6 °F 40.5 °F 79% 29.87 in 10.0 mi North - - N/A   Clear
4:55 AM 46.6 °F 40.3 °F 79% 29.88 in 10.0 mi North - - N/A   Clear
4:56 AM 46.6 °F 40.3 °F 79% 29.88 in 10.0 mi North - - N/A   Clear
5:15 AM 46.8 °F 40.1 °F 78% 29.88 in 10.0 mi North - - N/A   Clear
5:36 AM 46.6 °F 39.9 °F 78% 29.89 in 10.0 mi North - - N/A   Clear
5:55 AM 46.4 °F 39.7 °F 78% 29.89 in 10.0 mi North - - N/A   Clear
6:35 AM 46.4 °F 39.6 °F 77% 29.90 in 10.0 mi North - - N/A   Clear
6:55 AM 46.0 °F 39.6 °F 78% 29.91 in 10.0 mi North - - N/A   Clear
7:15 AM 46.0 °F 39.6 °F 78% 29.91 in 10.0 mi North - - N/A   Scattered Clouds
7:16 AM 46.0 °F 39.6 °F 78% 29.91 in 10.0 mi North - - N/A   Scattered Clouds
7:35 AM 45.7 °F 39.2 °F 78% 29.91 in 10.0 mi North - - N/A   Scattered Clouds
7:55 AM 46.4 °F 39.4 °F 77% 29.92 in 10.0 mi North - - N/A   Clear
8:15 AM 46.8 °F 39.2 °F 75% 29.93 in 10.0 mi North - - N/A   Clear
8:16 AM 46.8 °F 39.2 °F 75% 29.93 in 10.0 mi North - - N/A   Clear
8:35 AM 47.8 °F 39.7 °F 74% 29.93 in 10.0 mi North - - N/A   Clear
8:55 AM 48.2 °F 39.7 °F 73% 29.93 in 10.0 mi North - - N/A   Clear
9:15 AM 49.3 °F 39.9 °F 70% 29.94 in 10.0 mi North - - N/A   Clear
9:16 AM 49.3 °F 40.1 °F 71% 29.94 in 10.0 mi North - - N/A   Clear
9:35 AM 50.4 °F 40.3 °F 68% 29.95 in 10.0 mi North - - N/A   Clear
9:55 AM 51.4 °F 41.0 °F 68% 29.95 in 10.0 mi North - - N/A   Clear
10:15 AM 52.3 °F 40.8 °F 65% 29.96 in 10.0 mi North - - N/A   Clear
10:16 AM 52.3 °F 40.8 °F 65% 29.95 in 10.0 mi North - - N/A   Clear
10:35 AM 53.4 °F 40.8 °F 62% 29.96 in 10.0 mi North - - N/A   Clear
10:55 AM 54.7 °F 41.4 °F 61% 29.96 in 10.0 mi North - - N/A   Clear
11:15 AM 55.4 °F 41.4 °F 59% 29.96 in 10.0 mi North - - N/A   Clear
11:35 AM 56.3 °F 41.5 °F 58% 29.97 in 10.0 mi North - - N/A   Clear
11:55 AM 57.4 °F 42.1 °F 57% 29.96 in 10.0 mi North - - N/A   Clear
12:15 PM 58.1 °F 41.5 °F 54% 29.97 in 10.0 mi North - - N/A   Clear
12:35 PM 58.8 °F 42.1 °F 54% 29.97 in 10.0 mi North - - N/A   Clear
12:55 PM 59.0 °F 41.2 °F 52% 29.98 in 10.0 mi North - - N/A   Clear
1:15 PM 60.1 °F 41.7 °F 51% 29.98 in 10.0 mi North - - N/A   Clear
1:35 PM 60.6 °F 41.9 °F 50% 29.97 in 10.0 mi North - - N/A   Scattered Clouds
1:56 PM 60.8 °F 41.0 °F 48% 29.97 in 10.0 mi North - - N/A   Mostly Cloudy
2:15 PM 61.9 °F 41.0 °F 46% 29.97 in 10.0 mi North - - N/A   Mostly Cloudy
2:16 PM 61.9 °F 41.0 °F 46% 29.97 in 10.0 mi North - - N/A   Mostly Cloudy
2:36 PM 59.4 °F 40.5 °F 50% 29.97 in 10.0 mi North - - N/A   Scattered Clouds
2:55 PM 59.4 °F 40.8 °F 50% 29.97 in 10.0 mi North - - N/A   Mostly Cloudy
3:15 PM 58.5 °F 40.6 °F 52% 29.97 in 10.0 mi North - - N/A   Overcast
3:35 PM 60.8 °F 40.5 °F 47% 29.97 in 10.0 mi North - - N/A   Mostly Cloudy
3:36 PM 60.4 °F 40.5 °F 48% 29.97 in 10.0 mi North - - N/A   Mostly Cloudy
3:55 PM 60.3 °F 39.9 °F 47% 29.97 in 10.0 mi North - - N/A   Scattered Clouds
3:56 PM 60.1 °F 39.7 °F 47% 29.97 in 10.0 mi North - - N/A   Scattered Clouds
4:15 PM 61.0 °F 40.3 °F 46% 29.97 in 10.0 mi North - - N/A   Scattered Clouds
4:35 PM 60.6 °F 39.7 °F 46% 29.97 in 10.0 mi North - - N/A   Scattered Clouds
4:36 PM 60.8 °F 39.7 °F 46% 29.97 in 10.0 mi North - - N/A   Scattered Clouds
4:55 PM 59.5 °F 40.1 °F 49% 29.97 in 10.0 mi North - - N/A   Clear
4:56 PM 59.4 °F 40.1 °F 49% 29.97 in 10.0 mi North - - N/A   Clear
5:15 PM 59.4 °F 40.1 °F 49% 29.97 in 10.0 mi North - - N/A   Mostly Cloudy
5:16 PM 59.4 °F 40.1 °F 49% 29.97 in 10.0 mi North - - N/A   Mostly Cloudy
5:35 PM 59.0 °F 40.6 °F 51% 29.97 in 10.0 mi North - - N/A   Overcast
5:55 PM 58.3 °F 41.4 °F 53% 29.98 in 10.0 mi North - - N/A   Mostly Cloudy
6:15 PM 58.3 °F 40.5 °F 52% 29.98 in 10.0 mi North - - N/A   Mostly Cloudy
6:16 PM 58.3 °F 40.5 °F 52% 29.98 in 10.0 mi North - - N/A   Mostly Cloudy
6:35 PM 57.6 °F 41.0 °F 54% 29.99 in 10.0 mi North - - N/A   Overcast
6:55 PM 57.2 °F 40.3 °F 53% 29.99 in 10.0 mi North - - N/A   Overcast
6:56 PM 57.2 °F 40.3 °F 53% 29.99 in 10.0 mi North - - N/A   Mostly Cloudy
7:15 PM 56.8 °F 39.2 °F 52% 30.00 in 10.0 mi North - - N/A   Scattered Clouds
7:35 PM 58.1 °F 37.9 °F 47% 30.00 in 10.0 mi North - - N/A   Mostly Cloudy
7:55 PM 58.1 °F 37.8 °F 47% 30.01 in 10.0 mi North - - N/A   Overcast
8:15 PM 56.8 °F 39.4 °F 52% 30.02 in 10.0 mi North - - N/A   Overcast
8:16 PM 56.8 °F 39.4 °F 52% 30.01 in 10.0 mi North - - N/A   Overcast
8:35 PM 56.5 °F 39.7 °F 54% 30.02 in 10.0 mi North - - N/A   Overcast
8:55 PM 55.6 °F 40.5 °F 57% 30.02 in 10.0 mi North - - N/A   Overcast
9:15 PM 54.9 °F 40.8 °F 59% 30.02 in 10.0 mi North - - N/A   Overcast
9:35 PM 54.3 °F 41.2 °F 61% 30.02 in 10.0 mi North - - N/A   Overcast
9:55 PM 54.0 °F 41.5 °F 63% 30.02 in 10.0 mi North - - N/A   Overcast
10:15 PM 54.1 °F 41.4 °F 62% 30.02 in 10.0 mi North - - N/A   Overcast
10:16 PM 54.1 °F 41.4 °F 62% 30.03 in 10.0 mi North - - N/A   Overcast
10:35 PM 54.0 °F 41.4 °F 62% 30.03 in 10.0 mi North - - N/A   Overcast
10:55 PM 53.6 °F 41.4 °F 63% 30.03 in 10.0 mi North - - N/A   Overcast
11:15 PM 53.6 °F 41.2 °F 63% 30.04 in 10.0 mi North - - N/A   Overcast
11:16 PM 53.6 °F 41.2 °F 63% 30.04 in 10.0 mi North - - N/A   Overcast
11:35 PM 53.6 °F 41.2 °F 63% 30.04 in 10.0 mi North - - N/A   Overcast
11:55 PM 52.3 °F 41.4 °F 66% 30.04 in 10.0 mi North - - N/A   Mostly Cloudy
11:56 PM 52.3 °F 41.4 °F 66% 30.04 in 10.0 mi North - - N/A   Mostly Cloudy